This is the latest recevied weather packets stored in our database for station/object KC0UFP. If no packets are shown the sender has not sent any weather packets the latest 10 day(s).
| Time | Temp. | Humidity | Pressure | Rain* | Wind** | Luminosity | Snow |
|---|---|---|---|---|---|---|---|
| 1777993073 | 17.22° C | 93% | 1008.4 hPa | 0 mm | - | 104 W/m² | - |
| 1777992773 | 17.22° C | 94% | 1008.4 hPa | 0 mm | - | 94 W/m² | - |
| 1777992469 | 17.22° C | 94% | 1008.3 hPa | 0 mm | - | 82 W/m² | - |
| 1777992168 | 17.22° C | 95% | 1008.3 hPa | 0 mm | - | 173 W/m² | - |
| 1777991864 | 17.22° C | 95% | 1008.2 hPa | 0 mm | - | 169 W/m² | - |
| 1777991562 | 17.22° C | 95% | 1007.9 hPa | 0 mm | - | 125 W/m² | - |
| 1777991259 | 17.22° C | 96% | 1007.5 hPa | 0 mm | - | 192 W/m² | - |
| 1777990956 | 16.67° C | 96% | 1007.2 hPa | 0 mm | - | 222 W/m² | - |
| 1777990654 | 16.67° C | 97% | 1006.8 hPa | 0 mm | - | 195 W/m² | - |
| 1777990351 | 16.67° C | 97% | 1006.7 hPa | 0 mm | - | 268 W/m² | - |
| 1777990046 | 16.67° C | 98% | 1006.5 hPa | 0 mm | - | 303 W/m² | - |
| 1777989743 | 16.11° C | 98% | 1006.9 hPa | 0 mm | - | 195 W/m² | - |
| 1777989440 | 16.11° C | 98% | 1007 hPa | 0 mm | - | 195 W/m² | - |
| 1777989137 | 16.11° C | 98% | 1007 hPa | 0 mm | - | 225 W/m² | - |
| 1777988832 | 16.11° C | 98% | 1007 hPa | 0 mm | - | 160 W/m² | - |
| 1777988530 | 15.56° C | 98% | 1007.7 hPa | 0 mm | - | 106 W/m² | - |
| 1777988227 | 15.56° C | 98% | 1008.1 hPa | 0 mm | - | 89 W/m² | - |
| 1777987923 | 15.56° C | 98% | 1008.1 hPa | 0 mm | - | 114 W/m² | - |
| 1777987619 | 15.56° C | 98% | 1008.2 hPa | 1.27 mm | - | 110 W/m² | - |
| 1777987317 | 15.56° C | 98% | 1007.9 hPa | 3.05 mm | - | 90 W/m² | - |
| 1777987014 | 15.56° C | 97% | 1007.5 hPa | 3.05 mm | - | 52 W/m² | - |
| 1777986711 | 15.56° C | 97% | 1008.2 hPa | 3.05 mm | - | 32 W/m² | - |
| 1777986409 | 15.56° C | 96% | 1007.9 hPa | 3.56 mm | - | 20 W/m² | - |
| 1777986107 | 15.56° C | 96% | 1008.4 hPa | 4.32 mm | - | 16 W/m² | - |
| 1777985803 | 15.56° C | 96% | 1008.6 hPa | 4.32 mm | - | 14 W/m² | - |
* Rain latest hour (hover to see other rain measurements)
** Current wind speed in m/s (hover to see current wind gust speed)